Orbital Elements at Epoch 2459200.5 (2020-Dec-17.0) TDB
Reference: JPL 16 (heliocentric ecliptic J2000)
Element | Value | Uncertainty (1-sigma) | Units |
e | .09335811021302243 | 4.4516e-08 | |
a | 3.112679614502396 | 1.9497e-08 | au |
q | 2.822085727993853 | 1.3576e-07 | au |
i | 9.015804751511803 | 5.2007e-06 | deg |
node | 178.1703482379272 | 2.5044e-05 | deg |
peri | 31.39856963600471 | 3.5701e-05 | deg |
M | 127.1560923978935 | 2.5003e-05 | deg |
tp | 2458492.008357686604 (2019-Jan-08.50835769) | 0.00013833 | TDB |
period | 2005.857418413778 5.49 | 1.8846e-05 5.16e-08 | d yr |
n | .1794743717550404 | 1.6863e-09 | deg/d |
Q | 3.403273501010939 | 2.1317e-08 | au |
|
| | Orbit Determination Parameters
Additional Information
|